Theta_e
329 330 332 331 329 327 325 323 324 324 322 322 326 329 327 325 324 322 323 326 331 332 332 331 330 329 328 331 332 331 331 331 330 330 328 324 323 322 321 320 320 319 317 314 310 308 307 307 305 305 304 304 304 304 304 304 304 304 304 304 304 303 303 303 303 303 303 303 303 303 304 306 307 309 310 310 311 312 312 313 313 312 312 311 310
328 330 331 329 329 331 330 328 328 328 327 326 328 330 329 328 327 326 328 329 331 332 332 329 328 329 328 328 331 331 331 329 329 330 328 325 324 324 322 320 319 318 318 315 311 309 308 307 306 305 305 305 305 305 305 305 304 304 304 304 303 303 303 303 303 303 303 303 304 305 307 308 309 310 311 311 312 313 314 315 315 314 313 312 311
329 331 330 330 332 332 332 332 331 330 330 328 328 330 330 329 329 330 332 332 331 332 332 329 328 329 329 329 330 330 328 327 329 330 326 325 326 326 326 323 320 317 317 316 312 310 308 307 306 306 306 306 306 306 306 306 307 307 307 306 306 306 306 306 306 306 306 307 308 309 310 310 311 312 312 313 314 315 316 317 317 315 314 313 312
330 330 330 331 332 332 333 333 333 332 329 329 329 329 329 330 331 332 332 332 331 331 331 330 329 329 330 330 329 328 326 325 329 329 326 324 324 326 328 327 323 317 316 316 312 309 308 308 308 308 309 309 310 311 313 314 315 315 316 315 315 314 313 313 313 312 312 312 312 312 312 313 314 315 316 317 318 318 318 318 318 316 314 313 312
329 330 331 332 332 332 333 334 333 331 329 331 331 329 330 332 331 331 331 331 331 331 331 330 329 331 331 330 329 327 326 326 327 328 326 324 324 325 328 329 326 318 313 314 312 310 311 311 312 313 314 315 317 319 320 321 321 323 324 324 323 322 320 320 319 318 317 316 316 315 315 317 318 320 321 322 322 322 321 320 318 316 314 312 311
329 329 331 333 332 332 333 333 332 330 329 331 332 330 331 333 332 332 332 332 331 331 330 329 329 331 331 330 329 327 326 327 328 328 327 325 325 326 327 329 328 320 312 311 311 311 314 315 317 318 319 320 322 323 323 324 324 326 326 326 326 325 324 324 323 323 322 321 320 319 319 320 322 323 324 324 324 324 323 322 320 318 315 312 311
327 327 330 332 332 331 332 331 330 330 329 329 329 330 331 332 332 332 333 332 332 331 330 330 330 330 330 330 330 328 327 328 328 328 328 327 326 326 327 328 328 324 315 310 310 312 316 319 321 321 321 322 323 324 324 325 326 326 326 325 326 326 325 325 325 325 324 324 323 323 323 323 323 324 324 325 325 324 324 324 323 321 319 315 312
326 326 329 331 332 332 332 332 331 331 329 328 328 330 331 331 330 331 332 332 331 332 331 331 330 330 330 330 330 329 328 329 329 329 328 327 327 326 326 326 327 327 320 312 310 313 317 321 322 322 323 323 325 325 325 326 327 326 326 326 325 325 325 325 325 325 325 325 325 325 324 324 324 325 325 325 325 324 324 325 325 324 323 321 317
328 326 328 329 330 331 331 332 332 331 329 328 329 330 332 331 331 331 331 331 331 332 331 330 330 330 331 331 330 329 328 328 329 329 329 328 328 326 325 325 328 328 323 316 314 317 320 322 323 324 325 326 326 327 327 327 327 327 328 327 326 325 326 326 326 325 326 326 326 325 324 324 325 326 325 325 325 324 324 324 324 324 324 324 322
328 325 327 328 329 330 330 332 332 329 328 328 329 331 332 332 332 332 331 331 331 331 331 331 331 330 330 330 330 328 328 328 328 329 329 328 328 327 326 327 328 328 324 320 318 319 321 323 324 325 326 326 326 327 327 327 327 327 328 327 326 326 327 328 327 326 326 326 326 325 324 323 324 325 325 326 325 325 324 324 324 324 324 324 325
327 326 327 328 330 330 329 332 331 328 328 329 331 332 332 332 333 332 332 332 331 331 331 331 332 331 329 328 328 328 327 327 327 328 328 328 328 327 326 327 328 328 326 322 320 319 322 324 325 326 326 326 326 326 325 325 326 327 327 327 327 327 327 327 327 326 325 325 324 323 321 321 321 323 324 325 325 325 325 324 324 324 323 323 324
326 327 327 327 330 329 328 332 330 328 329 329 330 332 332 332 331 331 332 332 332 331 331 331 331 330 329 327 327 327 327 327 327 327 327 328 328 326 325 327 328 328 327 325 321 321 323 325 325 326 326 325 324 324 323 324 325 326 326 326 327 327 327 326 325 324 323 322 321 319 319 319 320 321 323 324 324 325 325 324 324 324 323 322 322
328 327 327 328 330 328 329 332 330 329 329 327 329 332 332 332 331 330 330 331 331 331 331 331 331 330 329 328 327 328 328 328 327 327 327 328 327 326 325 326 327 327 326 325 323 323 324 325 325 325 324 323 323 322 322 324 326 327 326 326 326 326 325 323 322 322 320 319 318 318 317 317 318 320 321 322 322 323 323 323 324 324 323 321 320
329 328 328 329 330 330 331 332 328 328 329 327 329 331 332 332 330 329 329 330 331 331 331 331 330 329 329 328 328 329 328 328 328 327 327 327 327 327 326 325 325 325 325 324 324 324 325 325 326 326 325 324 324 322 322 324 326 326 326 326 325 325 324 322 321 320 318 318 318 316 315 313 314 315 317 317 316 316 314 316 321 323 324 321 318
330 329 328 329 331 332 332 331 328 328 328 328 329 330 331 331 329 329 329 330 331 331 331 330 330 329 328 328 328 328 328 328 328 327 327 327 327 327 326 325 325 324 324 324 324 324 325 326 326 326 325 325 323 322 322 324 325 326 326 326 325 323 321 319 319 318 318 318 318 316 314 312 311 311 311 310 309 308 306 312 318 322 323 320 317
330 329 327 326 329 331 331 330 329 328 329 328 329 330 330 329 328 328 329 330 331 331 331 330 329 329 329 329 328 328 328 328 327 327 327 326 326 326 326 325 325 324 325 325 325 325 326 326 326 325 325 323 321 321 323 325 325 325 324 324 322 320 319 318 318 318 318 318 316 315 312 310 309 308 308 307 307 306 306 312 318 320 321 317 313
330 331 328 326 329 330 329 330 329 328 329 329 328 329 329 329 328 328 329 330 330 330 331 331 330 329 328 328 329 328 328 328 327 327 327 326 326 326 326 325 325 325 325 325 325 326 326 325 325 325 325 323 320 320 322 324 324 323 321 319 317 316 317 317 316 315 314 313 312 310 308 308 307 306 307 306 306 306 306 310 313 314 314 310 307
330 331 330 329 330 329 329 329 329 329 330 329 328 328 329 329 328 329 329 329 330 330 330 331 330 329 328 328 328 329 328 327 326 327 327 326 326 326 325 325 325 325 325 325 325 326 325 325 325 325 325 324 322 321 320 320 320 318 315 314 313 313 313 313 312 310 309 308 307 307 306 306 307 307 307 307 307 307 306 307 307 307 307 306 306
330 330 330 330 330 329 329 329 329 329 329 329 329 329 330 330 329 330 330 329 329 330 330 330 329 328 329 329 327 327 328 326 326 326 327 327 326 326 325 325 326 326 326 326 326 325 325 325 325 325 325 324 325 323 320 316 314 312 311 310 309 309 309 308 307 306 306 306 306 307 307 308 308 308 307 307 306 306 305 305 305 305 305 305 304
330 331 330 331 331 329 328 328 329 329 328 329 330 330 331 331 330 330 330 328 329 330 330 329 328 327 329 329 328 327 327 327 327 326 326 327 327 326 326 326 326 326 326 326 326 325 324 324 324 324 324 324 325 324 319 314 312 310 308 306 306 306 306 306 305 306 306 307 308 308 308 308 307 306 305 304 303 303 303 303 303 303 302 302 302
331 332 331 331 330 328 327 328 329 329 328 329 330 330 331 332 331 330 330 329 329 330 330 329 328 327 328 329 328 327 328 328 328 326 326 326 327 326 326 326 326 326 326 325 325 324 323 323 323 323 323 322 322 321 317 312 310 308 306 305 305 305 305 306 307 307 308 308 308 307 306 305 303 303 302 302 302 302 302 302 302 302 301 301 301
332 332 332 331 330 329 329 330 330 330 329 330 331 331 331 332 330 329 330 330 330 330 330 329 329 328 327 328 327 327 328 328 328 328 326 326 326 326 326 326 326 326 325 324 324 324 323 323 322 322 321 320 318 317 314 311 308 306 305 305 305 306 307 308 308 308 308 307 306 304 303 302 302 302 302 302 302 302 302 302 302 301 301 301 301
332 332 332 330 329 329 330 330 330 330 330 330 330 330 331 331 331 329 330 330 329 329 329 329 329 328 327 328 328 327 327 327 327 327 327 327 326 326 326 326 326 325 324 324 324 323 323 323 322 322 320 319 319 315 311 309 307 305 306 306 307 308 308 307 306 306 306 304 303 302 302 302 302 302 302 302 302 302 302 302 301 301 301 301 301
332 332 332 330 328 328 328 328 329 330 330 330 330 329 329 331 331 330 329 329 329 329 329 329 329 329 328 329 329 327 327 327 326 326 326 327 327 326 326 326 326 325 324 324 323 322 322 322 322 322 320 320 319 314 308 307 306 306 307 308 309 309 307 305 304 304 303 302 302 302 302 302 302 302 302 302 302 302 302 302 302 301 301 301 301
333 332 331 329 327 326 326 326 328 329 329 329 329 328 328 329 330 329 328 328 328 328 329 329 328 329 328 329 329 327 327 327 326 326 326 327 327 327 326 326 326 325 324 324 323 321 320 320 321 321 320 319 315 309 306 306 306 307 308 309 309 307 304 303 303 302 302 302 302 302 302 302 302 302 302 302 302 302 302 302 302 302 302 302 301
331 330 328 327 325 324 323 324 326 327 327 328 329 328 328 328 328 328 327 327 327 328 328 328 328 328 328 329 328 327 328 327 326 326 326 326 327 327 327 326 325 324 323 323 322 320 318 319 319 317 316 315 311 307 305 306 307 308 309 308 307 305 303 302 302 302 302 302 302 302 302 302 302 302 302 302 302 302 302 302 302 302 302 302 302
329 327 326 325 325 324 323 322 324 325 324 325 327 328 329 328 328 327 327 326 326 327 327 327 327 327 327 328 328 327 327 326 325 326 326 325 326 327 326 325 324 323 322 321 320 319 318 317 316 314 314 312 309 306 306 307 309 309 308 307 306 305 303 302 302 302 302 302 302 302 302 302 302 302 302 302 302 302 302 302 302 302 302 302 302
328 326 324 324 324 323 323 323 324 324 322 322 326 329 329 328 328 328 327 326 327 327 327 327 327 327 327 327 328 327 327 326 325 325 326 326 326 326 324 323 323 323 323 321 319 318 317 316 315 314 313 311 307 305 306 308 310 309 307 307 306 304 303 302 302 302 302 302 302 302 302 302 302 302 302 302 302 302 302 302 302 303 302 302 302
326 325 324 323 322 322 324 325 324 323 321 321 324 327 328 328 328 328 327 327 326 326 327 327 327 327 326 327 327 327 326 325 325 326 326 326 327 326 324 322 322 322 323 321 319 318 317 316 314 313 311 310 307 306 307 310 310 308 307 307 306 304 303 302 302 302 302 302 302 302 302 302 303 303 302 302 302 302 302 302 302 303 302 302 302
327 326 324 321 320 322 324 325 324 323 321 321 323 324 325 325 326 328 327 326 326 325 326 327 327 327 327 327 327 327 326 325 325 326 326 326 326 326 325 324 322 322 321 320 318 317 316 315 314 312 311 310 308 306 308 310 310 308 307 307 305 304 303 303 303 303 303 303 303 303 303 303 303 304 304 304 304 304 304 304 303 303 303 302 302
329 327 323 322 322 323 323 323 324 322 322 324 326 326 325 322 322 326 327 326 326 326 326 327 327 326 326 327 326 326 326 325 326 327 326 325 326 325 325 324 323 321 320 319 317 316 315 314 313 312 311 309 307 306 309 311 310 308 307 307 306 304 304 304 304 303 303 303 303 303 303 304 304 305 306 306 307 307 307 307 307 306 306 305 304
329 327 324 324 326 325 323 322 322 322 323 325 327 327 324 320 321 326 326 326 326 326 326 326 326 326 326 326 326 325 326 326 325 326 326 325 325 325 324 324 323 322 321 318 317 315 313 314 313 312 310 308 306 307 310 311 310 309 307 307 306 306 305 305 305 305 304 303 304 304 304 304 305 306 307 308 309 309 310 310 310 310 310 310 309
328 326 323 323 324 325 324 322 322 323 323 324 326 326 323 319 322 326 326 327 327 327 327 327 327 327 326 326 326 326 326 326 325 326 325 324 325 325 324 323 323 323 320 318 317 315 313 312 312 311 310 308 307 308 310 311 311 310 308 307 307 307 307 307 307 306 305 304 304 304 305 306 307 307 308 309 310 311 311 311 311 312 312 312 312
327 323 319 321 323 323 323 322 322 323 322 322 325 326 322 319 321 324 325 326 326 325 325 325 326 326 326 326 326 326 327 326 326 326 325 323 324 325 323 322 322 323 321 317 316 315 313 311 310 310 309 309 307 308 310 311 310 310 308 308 308 308 308 308 308 308 307 306 305 305 305 307 308 308 309 309 310 311 311 311 311 311 312 312 312
324 319 318 322 325 324 322 322 323 323 321 321 323 325 323 319 318 322 324 324 325 324 324 323 323 324 324 326 326 326 326 326 326 326 326 324 324 325 324 323 322 322 322 320 317 315 314 312 310 309 309 309 308 309 311 311 311 310 310 309 309 309 309 309 309 309 308 307 306 306 307 308 309 309 309 310 310 311 311 311 311 311 311 311 312
321 320 321 322 324 324 322 322 324 323 321 321 323 325 324 321 321 323 324 324 325 324 323 323 324 324 324 325 326 326 326 326 326 326 326 325 325 324 325 325 323 322 322 322 320 318 315 312 310 309 310 309 309 310 311 311 312 312 312 311 310 310 311 311 311 310 309 309 309 310 310 310 310 310 310 310 311 311 311 311 311 312 312 311 311
323 325 323 321 324 324 323 323 324 323 320 320 323 325 323 323 323 323 323 324 323 323 323 323 324 325 323 323 324 326 325 325 326 327 326 325 325 324 324 324 323 322 321 321 321 319 316 313 311 310 310 310 310 311 312 312 313 313 313 313 313 312 312 313 313 312 312 312 312 312 312 312 312 311 311 311 311 311 311 312 312 312 312 312 312
326 326 322 322 324 324 323 323 324 323 319 318 322 323 321 322 323 321 322 323 322 323 323 323 323 323 322 321 322 325 325 325 325 326 326 326 325 324 324 323 322 320 319 319 319 318 316 313 312 311 310 310 311 312 312 312 313 313 313 314 314 314 313 313 313 313 313 313 313 313 313 313 313 312 312 312 311 312 311 312 312 312 312 312 312
327 325 322 322 323 323 323 324 323 321 318 319 322 322 320 322 322 321 322 322 322 322 322 321 321 321 320 320 322 324 325 325 324 325 325 326 325 324 323 322 320 318 318 317 317 317 315 313 312 311 311 311 312 312 313 313 313 313 313 314 314 314 314 314 313 313 314 314 314 313 313 313 313 313 313 313 313 312 312 312 312 312 312 312 313
326 324 322 322 321 321 322 323 321 320 318 319 322 322 320 322 322 322 322 322 321 321 320 321 321 320 320 320 321 323 324 324 325 325 325 325 324 323 321 320 319 318 317 317 316 315 315 315 313 311 312 312 313 312 313 313 313 313 314 314 314 314 315 314 314 314 314 314 314 314 313 313 314 314 314 313 313 313 313 313 313 313 313 313 313
324 323 322 321 320 320 321 321 320 319 318 318 319 320 321 321 321 321 321 321 321 320 320 321 320 319 320 320 320 322 323 323 325 326 325 324 323 322 321 321 320 319 317 316 316 316 316 316 315 314 313 313 314 314 314 314 314 314 314 314 314 314 314 315 315 315 314 314 314 314 314 314 314 314 315 314 314 314 314 314 314 314 313 313 313
323 322 321 320 320 320 321 320 319 318 317 317 318 319 320 321 321 320 320 321 321 319 319 320 319 318 320 320 319 320 322 323 324 326 325 323 322 321 321 321 320 319 317 316 316 316 316 316 316 315 314 314 315 315 315 315 315 315 315 315 315 315 315 315 315 315 315 315 314 314 314 314 314 315 315 315 315 315 315 314 314 314 314 314 313
322 321 320 319 319 320 320 320 319 319 318 317 318 318 319 320 320 320 320 320 320 319 319 320 320 319 319 319 318 318 321 323 324 325 325 323 322 322 322 321 320 319 318 317 316 316 316 317 317 317 316 315 315 316 316 316 315 315 316 316 316 315 315 315 315 315 315 315 315 315 315 315 315 315 315 315 315 315 315 314 314 314 314 314 313
320 320 319 319 320 320 320 320 319 319 318 316 316 317 318 320 319 319 319 318 319 319 319 319 320 319 318 318 317 317 320 323 324 324 324 323 322 322 322 321 320 319 318 317 316 316 316 317 318 318 319 318 317 317 317 317 316 316 316 316 316 316 316 315 315 315 315 314 315 315 315 315 315 316 316 315 315 315 314 314 314 314 314 314 313
319 319 318 319 319 319 319 319 319 318 318 316 316 316 317 318 319 318 318 316 317 318 318 319 319 319 318 318 318 318 319 321 323 324 323 323 322 322 322 321 321 320 319 318 317 318 318 317 317 318 319 319 319 319 319 318 318 318 317 317 317 317 317 316 316 315 315 315 315 315 315 316 315 316 316 315 315 315 315 315 314 314 314 314 314
319 319 318 319 318 318 319 317 315 314 314 315 315 315 317 318 318 318 317 317 317 318 319 319 319 320 320 320 320 320 319 319 320 320 321 321 320 320 320 320 320 319 319 319 318 318 318 318 318 318 319 320 319 319 319 318 318 318 318 318 318 318 318 317 317 317 317 316 316 316 315 316 315 315 315 315 315 315 315 315 315 315 315 314 314
319 319 319 318 318 319 318 314 311 310 310 310 310 311 314 316 317 317 317 318 319 319 319 319 319 319 320 320 319 319 319 319 318 318 318 318 318 318 318 317 317 317 317 318 317 316 315 316 316 316 317 318 318 319 319 319 318 318 318 318 318 318 318 317 317 317 317 317 317 316 316 316 315 315 316 315 315 316 316 315 315 315 315 315 314
319 319 319 319 319 319 316 313 312 313 312 311 311 310 311 312 313 315 317 318 319 319 318 318 318 318 319 319 318 318 318 319 319 318 318 318 318 318 318 318 318 317 317 317 316 316 316 315 315 314 314 314 315 316 317 317 317 317 317 317 317 317 317 316 316 316 317 317 316 316 316 316 316 316 316 316 316 316 316 315 315 315 315 315 314
320 320 319 319 319 317 315 313 314 314 314 314 314 313 313 312 311 313 315 317 319 319 319 319 318 318 318 318 317 317 318 318 318 318 318 318 318 318 318 319 319 319 318 318 318 318 319 318 318 317 316 315 315 315 315 316 316 316 316 316 316 316 315 314 314 315 316 318 318 317 317 316 316 316 316 316 316 316 315 315 315 315 315 315 314
320 319 318 318 317 316 315 314 313 313 314 315 315 315 315 315 314 315 316 317 319 319 320 320 319 319 319 318 318 318 319 319 319 318 318 318 318 318 318 318 318 318 317 317 317 318 318 319 319 319 319 319 318 318 318 318 317 317 317 317 316 316 316 315 314 314 314 316 318 318 316 316 315 315 316 315 316 316 315 314 313 314 314 314 314
317 316 316 316 316 316 315 314 313 314 315 316 315 316 316 316 316 317 318 318 319 320 320 320 320 319 319 319 319 319 318 318 318 318 318 318 318 318 318 318 317 317 317 317 317 317 318 318 318 319 319 319 319 320 320 320 320 319 318 318 318 317 317 317 316 316 315 315 315 315 315 315 315 315 314 313 314 315 314 313 314 314 313 313 312
Wind_Speed
12 11 10 9 9 9 9 11 11 11 12 13 13 10 9 10 9 7 6 8 9 5 5 6 8 8 7 8 8 8 9 7 5 3 1 1 1 3 3 4 4 3 3 2 3 3 4 5 5 6 6 7 7 8 7 8 8 8 9 9 9 10 10 11 11 11 12 12 12 13 13 14 14 14 14 14 14 15 15 16 16 17 17 17 17
13 12 10 9 9 10 9 10 10 9 9 10 11 9 8 8 8 8 6 7 8 6 7 7 7 7 6 6 7 8 9 9 7 3 1 0 1 2 4 4 5 4 4 3 4 4 4 5 6 6 6 7 7 8 8 9 9 10 10 10 10 11 11 12 12 12 13 13 14 14 14 14 14 14 14 14 14 15 15 16 16 17 16 16 16
14 13 11 11 11 11 9 9 8 6 6 7 9 7 6 7 8 9 6 6 8 8 8 6 4 6 6 6 9 10 8 9 8 4 3 2 1 2 3 4 5 4 3 4 5 6 6 6 7 7 8 9 9 10 11 11 12 12 13 13 13 13 13 13 13 14 13 14 14 14 14 14 14 13 14 14 14 14 15 15 15 15 15 15 16
15 13 12 13 13 12 11 10 9 8 9 9 10 10 8 9 9 10 8 7 9 11 9 5 4 5 6 7 10 10 8 9 8 6 5 5 3 1 2 3 5 5 3 4 6 7 9 10 10 11 11 12 12 13 13 13 13 13 14 14 14 14 14 14 14 13 13 13 13 13 13 13 13 13 13 13 13 13 13 13 14 14 14 15 15
16 15 14 14 13 12 11 10 9 9 9 10 10 11 11 11 11 11 11 10 10 12 9 7 6 5 6 8 9 7 6 8 9 7 6 6 4 2 0 2 4 5 4 5 7 10 12 12 13 13 13 13 13 13 13 13 13 13 13 13 12 13 13 13 12 12 12 12 12 12 12 12 12 12 12 12 12 12 12 12 12 13 13 14 14
18 17 16 14 13 12 11 10 9 8 8 9 10 11 11 12 12 12 12 10 10 12 10 8 7 5 6 9 9 8 7 8 9 9 8 7 5 4 3 2 3 5 5 6 9 11 13 13 12 12 12 13 12 12 11 10 10 10 10 10 10 10 10 10 10 11 11 11 11 10 10 10 10 10 10 10 10 11 11 10 11 11 11 12 13
18 17 16 14 12 12 12 11 10 8 8 9 11 11 11 11 12 11 11 11 10 10 10 8 6 5 7 8 10 9 8 9 9 10 9 7 6 5 5 4 4 5 6 8 9 9 11 13 11 11 10 10 9 8 7 8 7 7 7 8 8 8 8 8 8 8 9 9 9 8 8 7 7 8 8 8 8 8 8 9 9 10 10 11 12
18 17 16 14 13 13 12 11 10 8 8 10 11 11 10 11 12 11 10 11 9 8 8 7 5 5 6 7 7 7 8 9 10 11 10 8 7 7 6 4 5 6 8 9 8 9 11 12 10 9 8 7 7 5 4 4 4 4 6 7 8 8 8 7 7 6 7 7 7 6 5 5 5 6 6 6 6 6 6 6 7 8 9 10 10
17 17 16 13 13 13 12 11 9 8 9 11 11 11 11 11 12 10 9 9 8 7 7 7 6 5 6 6 6 6 6 8 10 11 10 9 9 8 7 6 6 8 8 9 9 10 11 10 9 9 8 7 6 5 4 4 3 3 4 5 6 6 6 6 6 5 6 6 6 6 5 4 4 4 5 5 5 5 5 5 6 6 7 8 9
15 16 15 13 13 14 13 11 9 8 10 12 11 12 11 11 11 9 9 8 7 7 7 7 6 6 6 6 5 5 6 7 10 11 9 9 9 9 8 8 8 9 9 9 9 9 9 8 8 8 7 6 6 5 4 4 4 4 4 3 3 5 5 5 5 5 5 4 4 4 5 4 3 3 3 2 3 4 5 6 7 7 6 6 8
15 15 15 13 14 15 14 12 10 10 12 12 12 12 11 11 10 9 9 7 6 7 7 8 8 7 6 6 6 4 5 6 8 9 9 8 9 10 9 9 9 9 9 8 8 8 8 8 8 7 6 5 5 5 4 4 4 4 4 4 4 4 5 4 4 4 5 5 4 4 5 6 5 4 4 3 2 2 3 5 8 8 7 7 8
16 16 15 14 15 15 14 13 11 11 12 13 13 12 11 11 10 9 9 8 7 7 7 8 8 9 8 6 6 5 5 4 5 7 8 8 10 10 9 10 10 9 8 8 8 8 8 7 6 6 5 4 5 4 4 5 5 5 5 5 6 6 6 7 6 6 6 7 7 7 8 9 9 8 7 6 5 4 3 4 6 7 9 10 9
16 17 17 16 15 15 14 13 12 12 12 14 14 12 10 10 9 9 10 9 9 8 8 8 8 11 11 9 8 7 6 5 4 6 8 9 10 10 9 10 10 9 8 7 8 8 7 7 6 5 5 4 5 5 6 7 7 6 6 7 8 9 9 9 8 8 8 9 9 10 10 11 11 11 11 9 8 8 7 6 5 5 8 10 10
16 17 18 17 15 14 13 12 12 13 13 14 14 12 10 10 10 10 10 10 9 10 10 9 8 8 10 11 10 8 6 5 6 7 8 9 10 10 9 10 9 8 8 7 8 8 7 7 6 6 5 5 5 6 6 7 8 7 8 10 11 11 10 9 8 8 8 9 9 9 10 10 11 11 11 10 10 10 9 8 8 7 6 8 10
17 18 18 17 15 14 12 11 12 13 13 14 14 12 11 10 11 11 11 11 10 10 10 9 8 8 9 10 10 9 8 7 7 7 8 10 10 10 9 9 9 9 9 8 7 7 7 7 7 6 6 6 6 7 7 8 9 10 10 11 11 10 9 8 7 7 7 7 8 8 8 9 9 10 10 9 9 9 9 10 10 9 6 7 10
17 17 16 15 15 14 11 11 13 13 13 13 13 12 12 11 11 13 13 13 12 11 11 10 8 10 11 9 9 9 8 9 10 9 9 10 10 10 10 10 10 10 9 8 7 7 7 7 7 7 7 7 7 8 9 10 10 11 10 10 9 8 8 7 6 6 6 6 6 7 7 7 8 8 8 8 8 8 9 11 12 10 7 6 8
17 16 15 15 16 14 12 13 13 13 12 12 13 13 12 11 12 13 13 13 12 12 13 11 8 9 10 10 9 8 9 12 13 10 10 11 11 11 11 11 10 10 9 8 8 7 7 7 7 7 8 7 8 9 9 10 10 9 8 8 7 7 6 6 6 5 5 6 6 6 6 7 8 8 8 8 8 9 10 11 11 9 7 6 6
16 16 17 16 15 14 14 13 12 12 12 11 13 12 11 12 12 13 13 13 11 12 14 14 11 9 9 9 7 7 10 15 14 12 12 12 11 11 11 11 11 10 10 9 8 7 7 6 6 7 8 8 8 8 9 9 8 7 6 6 6 5 6 5 5 5 5 5 6 7 7 7 7 7 8 8 8 9 9 10 9 8 7 6 6
16 17 16 14 13 14 14 13 12 12 12 12 13 12 11 12 13 14 14 13 12 12 13 14 14 12 10 8 6 6 9 12 13 14 15 13 11 11 12 12 13 12 11 9 7 7 7 7 7 7 7 8 8 7 7 7 6 5 5 5 5 5 5 5 5 5 5 6 7 7 7 6 6 7 7 7 8 8 8 8 8 7 6 6 6
15 15 13 12 13 14 13 13 12 12 12 13 13 12 12 12 13 15 15 13 12 12 12 13 14 14 13 10 6 7 8 8 9 12 16 18 14 12 13 13 13 13 12 10 8 8 9 9 8 8 8 8 8 7 5 5 4 4 3 4 5 5 5 5 5 5 6 6 6 6 6 6 6 7 7 8 8 8 7 7 7 7 6 6 7
14 13 12 12 14 14 13 13 13 12 13 13 12 12 12 12 14 15 14 13 12 12 12 12 12 13 14 12 9 9 10 9 9 9 12 17 16 14 15 14 13 12 12 11 10 10 10 9 7 7 8 7 6 6 6 4 3 3 3 4 5 6 6 6 6 6 5 5 5 6 6 7 7 8 8 8 8 7 7 7 7 6 6 6 6
15 15 14 14 14 14 14 14 13 12 13 14 12 12 12 12 13 13 13 13 13 13 11 10 11 13 14 13 12 12 13 13 13 12 12 12 14 16 17 16 15 15 15 14 13 11 9 8 7 6 6 6 5 4 5 4 3 3 4 6 6 6 6 6 6 5 5 6 6 7 8 8 8 7 7 7 7 7 7 7 6 6 6 5 5
17 17 16 15 14 14 14 13 13 13 13 13 12 13 14 13 12 12 12 12 12 13 11 10 11 13 13 12 12 13 13 14 15 15 14 13 14 18 17 15 15 18 19 17 13 11 9 9 8 5 3 4 2 3 4 4 4 5 6 7 7 6 5 5 6 6 7 8 8 9 8 8 8 7 8 7 7 7 7 7 6 6 6 6 6
19 18 16 15 14 14 14 14 14 15 14 12 12 13 14 13 12 13 14 12 12 13 12 12 12 12 12 11 12 12 10 11 13 14 13 12 14 18 18 16 18 20 19 17 14 11 10 10 9 7 5 3 3 4 5 5 6 7 7 7 6 5 5 6 8 9 9 9 9 8 8 8 8 7 7 7 7 7 7 7 7 7 7 7 7
19 18 17 15 15 15 15 15 15 16 15 14 13 12 13 13 13 13 14 13 12 12 12 12 12 12 11 11 12 12 11 12 13 13 13 11 13 18 18 17 19 21 19 17 15 14 12 11 10 10 10 7 5 6 6 6 7 8 7 6 6 6 7 8 9 10 10 9 8 8 8 8 8 7 7 6 6 6 6 6 6 6 6 6 7
19 18 16 15 14 15 15 15 15 16 15 14 13 12 12 12 12 13 13 12 12 11 11 11 11 12 12 12 12 11 11 13 13 13 15 14 15 17 18 18 18 20 20 18 17 16 14 13 11 9 9 6 5 7 7 7 8 7 6 6 6 7 8 9 10 10 9 8 8 7 7 7 7 7 6 6 5 5 4 4 5 5 5 5 6
18 17 17 16 14 15 15 14 14 15 14 13 12 11 11 11 11 11 12 12 11 11 11 11 10 11 12 12 12 12 13 14 13 13 14 13 13 15 19 22 21 20 21 20 17 15 15 15 12 8 6 3 5 7 8 8 8 7 6 6 7 8 9 10 10 9 8 7 7 7 7 7 7 6 6 5 4 4 3 3 3 4 4 4 4
16 16 16 15 14 15 15 13 13 14 13 13 12 11 10 10 10 10 10 10 11 11 11 11 10 11 12 13 12 13 14 14 12 13 15 14 14 16 19 24 26 24 23 21 18 16 16 17 14 11 9 5 5 8 9 9 8 7 7 7 7 8 9 10 9 8 7 7 7 6 6 6 6 6 5 5 4 4 3 3 3 3 3 3 4
15 16 16 16 16 17 16 14 14 13 13 13 13 12 11 10 10 9 10 10 9 10 11 11 11 10 11 12 12 13 14 14 13 13 16 17 18 19 19 20 24 26 26 23 22 21 20 18 14 13 12 9 6 8 10 9 8 7 8 8 8 8 9 9 8 7 7 6 6 6 6 6 5 5 5 5 5 4 4 4 3 3 3 4 4
15 15 15 17 18 18 17 16 14 13 13 13 12 12 11 11 11 9 9 9 8 9 10 11 12 10 10 11 12 13 13 13 14 14 17 21 21 22 20 19 19 22 24 24 23 21 20 20 16 12 10 9 9 10 11 10 8 8 8 8 8 9 8 9 8 7 6 6 5 5 4 5 5 5 5 5 5 4 4 4 4 4 4 4 4
15 14 16 17 17 17 17 16 14 13 14 13 11 10 9 10 12 10 9 9 9 9 10 10 11 10 11 11 12 12 12 13 14 13 16 21 23 23 21 20 19 19 20 21 22 22 19 19 18 13 9 8 9 12 12 10 9 9 9 9 9 9 9 8 8 7 7 6 5 4 3 3 3 3 4 4 4 4 3 4 4 4 4 4 4
15 14 15 17 17 16 16 14 13 14 15 15 11 9 7 9 11 10 9 10 10 10 10 10 10 10 10 11 11 10 10 12 14 13 14 18 22 25 22 21 18 15 18 20 20 22 20 16 15 13 10 8 10 13 12 10 10 10 10 11 10 10 9 9 8 7 7 6 5 4 3 3 2 2 2 2 3 3 2 2 3 3 3 4 4
16 15 15 17 17 16 13 12 13 13 14 14 11 8 7 9 10 9 10 10 10 10 9 10 10 9 9 10 10 8 9 12 13 14 15 16 21 26 24 23 18 11 14 21 20 20 21 17 15 13 11 9 11 13 12 11 11 10 11 12 11 10 9 9 9 8 8 7 6 5 4 3 3 2 2 1 0 0 1 1 2 2 3 3 4
15 14 15 16 15 13 11 12 13 11 11 12 11 7 6 7 9 9 9 10 10 8 6 7 9 9 9 10 9 8 9 11 13 13 15 16 20 26 25 24 21 12 10 18 21 19 20 19 16 15 13 10 11 13 12 12 11 10 11 13 12 11 10 10 9 9 9 8 7 7 6 5 5 4 4 4 3 3 3 3 4 4 5 5 6
15 14 15 16 15 11 11 12 12 9 7 9 11 9 5 6 10 11 9 9 9 7 3 4 7 7 8 11 10 9 10 11 12 13 15 17 19 23 24 22 22 17 10 12 18 18 19 19 18 17 16 12 11 12 11 10 8 8 8 11 12 11 10 9 10 10 10 9 8 7 6 6 6 6 6 6 6 7 7 7 7 7 8 8 8
16 15 16 17 16 12 12 13 12 8 6 9 12 9 6 8 12 12 9 8 9 7 3 5 7 6 6 9 8 9 12 12 13 13 15 17 18 20 23 20 20 20 13 10 13 15 17 20 19 18 16 12 11 10 10 10 8 7 6 7 10 10 9 7 8 10 10 9 8 7 7 7 7 8 8 8 9 9 9 9 9 10 10 11 11
18 16 16 18 16 13 13 13 13 8 6 11 13 9 7 10 11 10 8 8 9 8 5 5 8 7 4 3 5 8 12 12 13 14 13 15 17 18 21 19 18 18 14 12 12 14 17 20 19 17 15 12 10 9 9 10 9 9 9 8 8 10 10 8 7 9 11 10 9 9 9 9 9 10 10 11 12 12 12 12 12 12 13 13 13
20 17 17 20 18 15 13 13 13 9 7 12 14 10 9 10 9 9 10 9 8 8 7 5 6 5 2 0 3 6 9 11 13 14 13 13 15 16 18 18 15 13 13 13 13 16 18 18 16 17 15 13 13 11 9 10 11 12 12 12 10 10 12 12 11 11 12 12 12 11 11 11 11 13 13 14 14 15 15 15 15 15 15 15 15
20 17 17 19 19 17 15 14 13 9 9 13 13 10 11 11 9 9 11 10 8 7 8 7 5 4 1 1 3 4 6 9 13 14 12 13 13 14 16 16 13 11 12 13 14 17 18 16 16 17 15 14 15 13 11 12 14 15 16 17 16 14 14 15 14 14 14 14 14 14 14 14 15 16 17 17 17 17 17 17 17 16 16 16 16
19 18 18 19 19 18 16 14 12 10 11 13 12 10 11 11 11 10 11 11 9 8 8 7 5 4 2 1 1 4 7 9 12 14 12 12 13 15 17 15 11 11 13 14 16 18 17 14 15 17 16 15 16 16 14 15 18 20 21 21 22 20 18 17 16 16 16 17 18 19 19 19 19 19 18 18 18 18 17 18 18 17 17 16 16
18 18 19 20 20 18 16 14 12 12 13 12 11 11 10 11 11 11 12 11 9 9 7 4 3 2 2 1 2 3 7 8 12 15 13 12 15 16 16 12 9 12 16 17 16 16 16 15 13 15 17 17 17 18 19 18 19 20 21 23 25 24 21 19 18 18 18 19 22 23 24 24 23 22 20 19 18 18 19 19 19 19 18 17 16
19 18 20 21 20 18 16 15 14 14 13 12 12 11 10 11 11 11 13 11 8 8 6 4 3 2 2 2 3 3 5 8 11 15 14 14 16 15 12 11 10 12 17 18 14 12 16 16 14 16 18 17 18 19 19 19 17 17 19 22 25 25 23 22 21 20 20 21 24 26 27 26 26 25 24 23 21 21 22 22 22 21 20 19 18
21 19 20 21 20 18 17 16 15 15 14 12 13 12 10 11 12 11 12 12 9 7 6 5 5 3 2 1 3 3 3 7 9 13 15 16 16 14 11 11 11 12 15 17 14 13 16 15 13 13 15 16 18 18 18 19 18 18 19 20 21 22 24 25 24 24 23 23 25 27 28 28 28 29 27 25 24 24 24 25 24 24 23 22 22
21 20 20 19 18 18 18 17 14 14 13 13 13 13 11 11 12 11 11 12 10 7 6 5 4 3 2 1 2 2 3 6 8 10 14 16 16 13 11 11 11 12 15 16 15 14 16 15 13 11 10 12 15 16 17 19 20 21 21 21 21 22 24 26 27 26 25 25 25 28 30 29 30 31 30 28 27 27 27 27 26 26 27 26 24
21 20 20 18 17 17 17 15 13 12 12 12 13 14 12 12 12 11 10 11 10 8 5 3 4 4 4 2 1 3 5 7 7 9 11 13 13 13 13 12 11 12 13 14 14 14 15 16 17 15 13 12 13 14 15 18 21 23 24 25 25 26 28 30 30 29 29 28 29 31 32 31 31 33 33 32 31 30 29 28 28 29 29 28 26
21 21 20 18 17 16 15 12 11 11 11 12 13 14 14 14 14 12 10 10 10 8 7 6 7 8 7 5 4 4 4 5 6 8 10 9 10 11 12 12 12 11 11 12 13 14 15 16 17 18 17 16 16 16 15 17 18 19 20 22 23 25 28 30 31 32 32 33 33 34 36 35 33 35 35 34 33 32 30 28 29 30 30 29 28
21 21 19 18 17 15 13 11 11 12 12 12 12 13 15 16 16 14 12 11 10 9 10 9 8 8 8 8 6 5 4 4 5 7 8 8 8 9 10 11 11 11 12 12 13 14 15 16 17 18 19 19 20 20 19 19 18 18 18 19 20 22 24 26 27 29 31 32 33 35 37 37 35 36 37 35 32 31 30 29 28 29 30 30 30
23 22 20 18 16 14 13 12 12 13 13 12 12 12 12 14 16 16 13 11 10 9 9 9 8 8 8 7 6 5 5 5 5 6 7 7 8 8 9 9 10 11 13 14 14 15 15 16 17 19 20 21 22 23 24 24 24 24 24 24 24 24 26 28 29 29 29 30 31 34 36 35 33 33 33 32 30 29 27 25 26 29 30 31 31
23 22 20 18 16 14 14 14 13 13 12 13 13 12 11 11 14 14 12 11 10 9 9 8 8 9 9 8 7 7 6 6 6 7 8 9 9 10 10 10 11 12 13 14 15 15 15 17 17 18 20 21 22 23 25 26 28 28 29 30 30 30 31 32 33 33 31 30 30 32 35 36 35 35 34 34 33 31 29 28 30 33 33 32 32
23 20 17 14 13 13 13 13 13 13 13 13 12 12 11 11 12 11 10 11 11 9 9 9 8 9 9 9 9 9 9 9 9 9 10 11 12 12 13 14 14 15 16 16 17 18 18 18 19 19 20 21 22 23 24 25 27 28 29 31 31 31 32 33 34 35 35 34 33 33 35 37 37 38 37 36 35 35 36 36 37 36 34 33 33
20 15 11 10 11 12 13 14 14 13 12 12 12 12 12 11 12 11 10 9 10 9 9 10 10 10 9 9 10 10 10 10 10 10 11 12 13 14 15 16 17 18 18 18 19 20 21 22 22 23 24 24 24 25 26 27 27 28 30 31 31 32 33 35 36 36 38 40 38 37 38 38 36 34 33 33 36 38 38 37 36 34 33 33 33
Wind_Direction
192 190 178 173 164 147 148 147 138 141 151 152 139 135 152 159 153 145 150 152 151 167 209 220 212 205 186 181 196 202 212 234 238 242 265 247 5 35 53 59 64 68 79 110 130 126 111 100 94 95 94 93 93 91 89 85 82 81 78 75 74 73 73 73 74 73 74 75 76 77 77 76 75 74 73 72 70 69 67 66 65 64 63 64 65
196 193 182 174 159 141 136 138 135 130 144 149 135 137 151 146 133 123 126 142 150 184 218 226 222 220 204 190 212 201 203 240 247 241 286 294 2 26 41 45 50 56 69 95 125 132 122 115 107 106 106 103 101 95 92 90 86 83 81 79 77 76 76 76 77 77 78 79 80 80 80 79 78 77 76 75 74 73 71 68 66 65 63 63 64
197 194 184 169 150 140 134 138 146 148 160 160 149 162 163 148 146 145 154 163 169 203 225 234 232 222 210 191 203 205 221 251 250 249 277 267 286 18 44 49 49 52 72 98 119 130 127 125 120 117 113 107 102 96 93 91 88 86 84 82 80 79 78 78 78 79 80 81 82 81 81 80 79 80 79 78 78 75 72 69 67 65 64 63 63
195 189 180 167 150 146 150 155 169 181 181 168 161 173 166 162 171 167 180 187 192 211 221 232 239 223 203 188 197 210 226 236 235 241 254 255 257 317 23 47 50 50 75 109 123 131 129 125 123 120 114 109 103 99 97 94 91 88 85 82 81 80 80 80 80 79 80 80 81 82 82 83 82 82 82 81 78 76 73 70 68 66 65 63 63
190 183 177 170 159 157 162 171 184 190 181 164 163 169 160 164 177 178 187 192 200 210 214 222 232 227 205 194 199 207 206 207 215 219 231 245 244 240 78 73 66 63 81 125 135 136 132 127 123 118 113 109 104 101 100 98 95 88 83 81 80 80 80 81 81 81 81 80 82 84 85 87 88 87 85 83 79 76 72 68 67 66 65 65 64
187 183 179 177 173 171 173 185 195 195 184 171 170 172 165 170 179 181 189 192 196 207 216 223 226 229 216 208 213 221 214 206 206 209 222 229 214 206 186 132 98 89 97 128 143 142 135 126 119 114 110 107 104 103 102 98 92 87 82 80 79 80 82 82 83 83 82 82 83 84 86 88 89 88 83 78 76 73 70 66 64 64 64 65 66
188 187 186 183 181 180 178 187 193 189 182 178 177 178 174 179 186 186 190 192 193 207 219 223 226 220 210 211 217 222 215 207 207 207 212 213 206 198 182 163 127 108 105 125 142 142 133 127 123 119 116 110 107 104 100 95 90 89 84 80 81 83 83 81 81 81 79 79 80 80 80 83 85 83 77 69 66 66 68 69 65 62 62 63 65
193 190 189 185 183 184 181 183 189 187 182 183 184 183 176 182 194 192 190 194 193 205 215 218 221 198 195 209 209 206 196 192 199 200 198 201 204 190 180 182 153 123 110 123 139 137 132 133 132 130 128 124 122 120 114 106 98 96 88 79 80 84 83 74 68 67 62 58 58 57 58 67 69 58 51 51 51 51 59 66 69 66 62 62 63
196 192 192 187 186 191 188 182 186 194 194 193 190 185 178 181 196 194 190 196 193 198 206 208 204 172 173 190 188 189 185 184 191 193 191 194 199 192 190 189 161 136 121 125 133 131 131 134 133 133 133 129 130 138 146 143 127 110 95 80 75 80 80 66 56 54 52 49 46 34 27 42 55 39 25 27 32 38 42 43 47 53 58 62 61
195 193 194 192 192 197 193 180 184 199 198 194 189 186 183 185 198 202 197 197 191 196 196 190 178 154 163 175 179 188 176 178 187 187 185 190 198 197 190 179 160 142 133 133 134 131 130 133 136 135 134 134 132 134 139 141 132 123 117 102 81 77 79 71 58 55 62 66 55 29 16 31 64 74 50 30 21 33 41 35 33 38 48 60 62
198 198 196 198 199 199 191 179 185 198 192 189 189 188 187 189 196 202 199 189 186 194 182 172 159 142 163 167 158 171 168 175 185 185 189 195 201 199 184 173 163 149 143 142 141 139 136 136 138 134 133 137 133 129 129 129 124 125 128 125 112 96 91 92 80 71 78 82 69 53 50 60 76 91 91 90 78 58 51 41 42 44 46 57 63
198 200 200 201 202 197 185 178 186 195 192 190 192 193 192 194 198 199 195 181 180 192 179 173 159 140 154 167 158 154 152 167 180 181 188 191 195 194 179 170 167 157 152 151 146 144 143 141 136 130 133 137 136 136 133 128 125 125 126 123 119 112 101 95 93 89 88 87 81 74 70 72 76 80 86 93 93 89 79 59 54 46 45 57 60
196 199 202 202 203 197 182 179 189 195 195 194 195 196 196 198 201 200 195 185 181 187 182 180 168 148 150 158 161 157 149 156 175 181 181 179 185 188 177 169 168 166 165 160 153 151 148 145 138 135 140 139 136 136 131 128 128 126 123 122 118 112 105 100 100 95 87 85 83 79 76 76 77 80 85 90 90 90 90 89 83 60 55 61 58
194 197 200 199 200 194 180 182 194 196 196 199 199 199 200 201 204 200 192 189 186 184 183 180 181 176 164 156 158 160 156 158 164 173 174 174 183 185 175 168 167 170 173 165 161 159 150 144 141 136 137 140 137 131 128 127 126 125 121 119 116 112 110 108 103 92 86 86 84 82 81 81 81 83 85 86 86 86 87 95 101 97 81 63 60
196 196 197 198 196 189 185 195 205 201 197 202 204 201 202 199 200 199 189 185 184 179 182 183 183 185 173 163 164 158 151 154 157 165 174 174 178 179 173 170 167 165 167 169 171 169 158 152 147 133 127 137 136 125 123 124 123 124 122 119 116 115 114 110 102 93 89 90 88 86 84 83 85 85 85 83 82 83 84 93 102 108 100 69 71
196 195 197 202 196 191 197 206 209 205 200 204 207 203 201 193 190 196 193 187 185 180 179 185 185 181 173 162 164 165 158 157 154 157 170 173 172 171 169 170 166 159 162 171 172 174 168 158 152 142 134 135 131 123 123 124 123 123 124 123 120 117 114 109 105 102 100 97 93 92 89 86 87 86 86 84 82 86 90 96 103 110 108 85 85
194 195 202 207 199 197 208 210 207 205 202 204 207 205 204 199 191 195 196 190 192 188 182 183 185 189 186 169 166 183 177 160 151 149 164 170 166 164 166 168 165 159 165 174 172 173 173 161 154 150 147 139 129 125 125 125 126 128 129 126 123 120 118 115 114 112 107 104 99 96 91 87 87 86 87 85 83 84 88 95 103 108 105 87 81
193 197 206 207 199 202 210 206 201 201 202 202 203 202 203 200 194 194 194 188 190 193 187 184 185 192 200 193 191 201 184 165 153 147 156 166 164 161 165 168 164 159 162 170 170 169 167 156 150 151 149 137 127 127 128 129 132 134 134 132 129 128 126 125 124 120 113 106 99 96 92 88 87 87 86 84 82 81 84 91 96 97 94 85 80
193 198 201 199 196 201 203 196 193 196 198 198 197 194 194 191 187 190 194 188 186 193 192 187 188 191 194 198 195 186 183 175 165 156 156 163 168 162 166 172 169 163 160 163 167 160 144 135 140 148 147 140 137 137 134 134 137 140 141 140 139 137 132 129 125 120 114 107 102 99 96 92 88 85 83 83 82 84 86 91 94 94 93 88 82
190 193 192 190 194 198 196 188 186 191 193 192 190 186 184 183 183 187 190 190 190 193 194 191 191 191 190 195 189 171 176 180 178 173 163 161 165 167 168 170 169 167 161 155 157 146 129 129 142 149 152 156 159 157 147 144 145 146 151 144 139 137 133 129 127 122 117 112 107 102 97 93 91 89 89 88 88 88 88 88 88 88 85 81 77
184 186 188 189 191 193 194 187 182 185 186 185 184 183 184 184 186 187 184 187 192 191 191 194 195 195 194 196 192 180 176 169 175 186 172 163 166 171 171 168 169 170 157 143 145 144 135 143 160 165 163 161 164 168 165 160 157 158 158 146 138 137 138 137 133 127 120 114 107 104 101 100 99 98 97 94 91 88 86 83 79 77 74 71 70
179 185 194 192 187 188 192 187 180 179 180 182 184 182 186 189 188 185 181 184 191 190 189 194 196 197 199 199 199 194 183 175 176 179 178 173 169 170 172 172 166 158 147 141 146 150 152 170 188 190 171 144 137 164 175 171 169 170 162 150 144 143 143 140 134 129 124 120 116 113 111 109 107 104 100 96 91 86 82 79 73 68 65 59 57
181 188 194 191 187 186 188 185 181 175 174 182 188 184 186 192 187 183 185 185 188 191 193 197 196 194 197 203 210 206 194 189 187 181 180 178 168 165 169 170 158 147 144 144 148 158 171 192 209 216 179 139 133 189 191 188 175 169 164 156 150 147 144 139 133 130 128 126 124 121 118 114 108 102 97 92 89 85 78 73 66 61 57 51 49
183 189 193 189 187 186 185 186 183 175 172 184 195 188 185 188 185 185 188 185 185 190 195 198 197 196 197 201 208 207 199 199 196 190 190 185 172 165 163 162 155 149 149 148 151 163 178 198 217 241 248 235 242 224 198 190 179 169 166 161 156 151 146 142 138 135 133 132 129 125 120 113 105 97 90 84 79 75 68 63 59 54 50 48 46
187 191 192 189 188 189 188 187 182 176 176 186 194 188 181 183 183 184 187 185 183 187 193 195 195 200 203 201 204 200 191 191 190 190 193 189 179 168 161 164 162 155 156 159 162 168 182 203 220 239 247 244 226 210 196 186 177 169 170 168 163 157 151 147 143 140 138 136 132 127 119 109 102 94 86 80 72 65 61 57 54 51 48 46 45
190 190 188 188 188 189 190 187 181 180 183 187 188 184 180 182 182 181 184 187 186 186 192 194 193 201 207 204 203 197 189 187 184 186 191 188 182 171 160 164 166 158 157 162 169 173 184 207 226 232 228 230 224 206 191 183 178 173 177 176 170 163 156 151 148 145 143 140 134 125 115 106 100 97 91 85 77 67 62 56 54 52 50 49 47
189 187 187 188 187 188 190 188 182 183 188 187 182 180 180 182 182 179 181 186 189 191 196 198 194 197 204 205 203 198 192 190 184 183 190 192 187 176 160 157 161 162 161 164 171 177 187 200 215 229 230 245 233 205 186 182 184 183 180 176 175 170 161 156 153 150 147 140 131 118 110 106 102 101 97 92 86 74 65 53 48 47 47 50 48
190 192 193 192 189 187 186 187 185 183 185 183 176 175 177 181 179 174 177 183 189 196 201 204 198 194 200 203 202 201 195 194 191 180 184 192 187 172 160 156 159 163 168 173 176 180 194 200 200 211 233 259 229 197 189 186 189 192 183 176 179 173 163 159 157 154 150 139 130 120 113 111 107 105 101 93 88 74 64 51 38 33 30 30 30
192 193 195 194 188 183 181 185 187 183 179 176 174 172 172 177 176 172 177 178 185 195 199 203 201 197 200 199 199 205 200 196 198 184 179 187 183 171 167 165 162 162 169 180 181 182 195 205 205 207 219 241 241 205 194 191 193 196 187 176 177 174 167 164 162 161 158 146 137 128 120 115 108 104 100 92 88 78 69 59 44 33 24 17 12
188 185 188 188 182 181 183 186 187 182 171 166 169 170 170 176 175 172 176 171 173 185 184 192 199 197 198 200 201 207 202 196 202 195 180 181 181 177 179 182 179 173 172 175 179 184 195 204 216 229 226 234 239 212 197 195 196 195 189 182 178 176 174 172 172 173 167 157 148 139 128 118 109 104 101 95 92 86 77 71 59 48 37 24 15
186 183 184 182 178 182 187 188 187 179 163 155 164 175 176 175 172 171 175 170 169 175 172 179 192 193 191 197 203 206 203 197 201 201 187 184 185 182 182 187 189 188 184 178 176 186 201 207 214 235 245 238 222 204 198 199 197 195 192 187 181 182 185 185 186 185 179 173 164 154 144 131 122 115 111 105 101 96 85 75 64 55 48 37 26
190 190 187 178 176 182 187 188 185 174 162 158 165 182 182 167 165 168 171 170 168 169 171 174 182 187 186 191 199 203 203 199 199 199 193 190 189 186 184 185 185 187 195 194 183 185 203 219 221 227 236 230 210 202 201 202 201 201 199 195 191 191 196 197 198 198 193 190 187 182 180 173 165 152 135 121 108 99 85 69 57 45 39 31 23
193 195 188 180 180 184 184 181 177 168 164 163 163 178 178 160 162 168 169 172 168 162 170 176 177 182 186 191 199 199 197 199 197 195 194 192 189 187 187 189 189 186 193 199 193 185 195 216 228 227 227 222 209 204 208 211 210 209 207 206 202 197 205 212 210 211 209 205 206 207 207 214 225 234 234 230 215 14 9 5 357 355 354 354 357
196 192 178 170 173 178 175 169 168 165 164 165 164 167 163 156 163 164 161 168 164 153 166 182 180 184 187 187 192 194 193 196 199 198 196 194 190 188 189 192 194 186 181 195 199 192 194 207 218 220 222 224 215 211 216 216 212 213 215 216 211 201 206 220 222 223 223 217 216 219 225 238 251 261 265 267 274 282 293 299 302 309 313 318 325
193 179 166 161 160 161 160 156 158 160 160 163 162 158 150 150 154 146 140 156 162 150 151 176 171 177 188 190 192 193 192 195 200 201 197 196 196 194 193 196 195 190 181 194 201 201 201 205 210 215 219 222 218 213 208 201 201 210 214 217 215 206 206 223 236 236 229 222 219 222 233 245 255 263 268 271 275 279 283 287 291 296 300 303 307
179 165 162 161 157 152 147 146 155 167 165 153 150 151 149 140 141 138 130 147 161 153 143 167 171 170 181 194 204 203 198 197 197 195 193 195 198 196 195 196 196 196 194 197 206 213 213 209 210 217 223 223 220 208 190 186 202 224 227 221 219 218 213 220 240 239 226 219 220 228 237 247 255 262 265 269 272 275 277 280 283 287 290 294 296
164 163 161 155 154 154 151 155 168 180 171 149 145 147 146 136 139 145 142 149 160 158 148 154 175 184 181 192 218 212 205 201 192 189 192 195 195 195 196 196 194 197 199 201 214 226 222 215 213 215 218 224 227 218 199 199 216 231 240 247 244 236 225 219 234 234 220 219 230 240 245 252 261 266 268 269 269 271 273 275 278 281 284 288 290
161 168 163 154 154 155 156 166 180 188 168 151 148 150 149 142 144 149 148 151 156 165 169 153 158 178 183 153 208 210 209 205 196 191 192 195 194 192 193 191 189 192 194 196 215 226 220 217 218 213 212 218 223 225 222 222 229 235 242 253 260 254 243 237 237 232 226 233 244 252 259 264 269 272 272 271 270 270 270 272 275 278 281 284 287
166 170 164 157 156 156 159 172 184 186 164 151 151 157 158 153 151 150 152 156 154 162 182 186 177 187 196 193 209 205 196 197 198 194 188 185 187 184 181 182 184 190 191 192 205 214 213 214 217 214 210 214 220 228 237 238 238 244 251 255 259 264 262 256 254 250 248 254 259 265 270 273 276 277 275 273 271 271 272 273 274 275 278 283 287
169 169 163 156 155 160 166 174 177 172 162 158 160 164 162 157 158 159 158 160 157 154 164 176 187 196 193 183 235 189 178 185 195 196 188 178 176 175 175 176 182 194 198 195 195 202 207 208 212 214 212 215 221 224 228 232 235 241 248 253 257 263 267 269 272 270 264 264 267 270 271 273 275 277 276 272 269 270 271 271 272 273 277 283 288
168 164 162 159 158 164 170 174 173 168 165 166 169 167 165 165 168 168 164 161 159 157 157 164 177 176 150 82 48 145 171 180 187 192 193 182 175 179 184 190 198 199 197 194 192 200 208 206 210 216 214 218 222 219 219 228 238 244 249 253 256 259 261 264 272 276 272 267 265 266 268 271 273 275 275 271 269 269 270 271 275 279 281 284 288
161 161 165 165 164 168 175 176 172 171 170 168 171 172 170 174 176 169 165 163 158 161 176 207 224 192 133 92 40 71 159 174 180 189 194 186 180 188 201 205 202 197 196 195 190 195 204 208 215 218 218 225 230 226 225 232 244 254 255 255 258 259 255 253 256 262 265 264 262 263 267 270 271 272 273 274 275 274 273 279 286 290 289 289 290
159 165 171 171 168 173 181 180 175 179 181 175 176 179 172 172 175 171 170 171 163 162 180 204 224 215 167 139 8 31 134 169 180 190 192 187 186 196 206 200 195 200 204 202 196 193 199 206 213 217 223 232 233 234 237 239 245 252 254 258 264 262 252 247 249 253 257 259 260 262 268 271 271 272 273 274 276 276 279 286 292 293 291 291 291
162 170 176 176 173 177 184 184 180 184 187 184 184 185 175 168 170 171 178 180 171 164 178 188 195 198 188 219 352 49 133 164 175 185 192 194 198 205 208 201 197 199 202 203 203 204 208 213 218 222 231 233 231 236 243 244 246 250 252 257 264 262 255 250 252 257 261 262 261 263 267 269 270 271 272 273 274 276 281 286 288 289 290 289 288
163 173 179 178 176 179 183 187 187 189 189 188 187 185 176 168 167 166 172 178 167 159 174 167 143 163 180 183 157 135 142 154 164 176 190 201 211 218 221 220 217 213 212 213 216 219 222 227 230 234 243 246 243 245 248 248 250 253 254 257 259 261 260 258 259 262 265 265 264 264 266 266 267 268 269 273 276 276 278 282 284 286 287 286 284
166 175 180 181 180 180 182 184 183 183 184 186 190 189 181 171 165 158 155 160 156 160 178 165 131 135 148 154 161 156 141 147 165 176 179 187 203 214 222 226 229 233 236 234 232 232 235 238 240 243 250 255 254 255 258 256 253 254 255 255 257 259 260 261 264 266 266 265 265 267 268 268 267 267 269 272 275 274 274 276 279 282 283 283 281
176 180 181 182 181 178 174 166 158 156 158 165 174 182 184 181 176 167 157 149 146 158 180 180 160 152 151 151 160 159 147 154 175 184 184 187 198 208 217 221 224 230 235 238 241 243 243 244 246 247 251 255 255 257 261 261 256 254 253 254 257 260 261 264 265 264 263 264 265 266 268 269 269 269 271 273 272 271 272 272 272 274 278 280 280
181 182 180 178 175 171 165 157 152 149 147 149 152 158 170 180 181 178 171 162 156 162 176 183 186 183 177 174 177 174 168 170 177 188 196 203 213 222 228 229 227 229 231 234 239 244 246 247 248 248 248 251 252 254 257 259 260 259 258 258 260 262 266 268 267 265 264 263 262 262 264 267 268 268 271 271 267 265 267 268 270 273 275 277 277
177 176 173 170 167 167 166 162 158 157 155 154 154 154 157 166 173 178 180 179 176 174 173 176 183 187 189 197 204 207 209 207 203 205 207 212 221 229 233 233 233 235 239 241 241 242 244 247 249 251 250 250 251 252 253 256 259 261 263 263 263 264 269 273 272 271 270 267 265 264 263 263 264 266 269 268 265 262 262 267 275 276 272 269 267
168 165 163 166 171 175 178 175 168 164 163 163 163 165 166 167 171 174 179 184 184 178 170 168 171 180 191 202 212 219 224 227 227 227 226 229 235 240 243 244 246 249 251 250 248 244 244 246 249 252 254 255 256 258 258 258 260 263 266 267 268 269 272 274 274 273 272 269 268 269 270 270 269 269 267 265 262 261 265 273 278 274 265 259 258
162 161 159 162 170 176 181 182 178 173 172 172 172 173 174 176 176 170 167 176 183 183 180 175 169 172 184 198 211 221 229 235 239 241 242 244 246 250 253 255 258 259 259 259 258 255 253 254 254 255 257 258 259 260 260 259 260 262 265 267 269 270 271 272 273 274 274 273 271 272 276 279 275 268 265 269 271 272 276 279 275 264 257 255 255